| time (UTC) | temp F | wind direction | speed MPH | gust MPH | rain 1hr in | rain 24hr in | rain mn in | humidity % | barometer mb |
| 20260906093024 | 69 | 336 | 0.0 | 0.0 | 0.00 | 0.55 | 0.01 | 99 | 1010.9 |
| 20260906092523 | 69 | 336 | 0.0 | 0.0 | 0.00 | 0.55 | 0.01 | 99 | 1010.8 |
| 20260906092025 | 69 | 336 | 0.0 | 0.0 | 0.00 | 0.55 | 0.01 | 99 | 1010.8 |
| 20260906091522 | 68 | 336 | 0.0 | 0.0 | 0.00 | 0.55 | 0.01 | 99 | 1010.8 |
| 20260906091022 | 68 | 336 | 0.0 | 0.0 | 0.00 | 0.55 | 0.01 | 99 | 1010.8 |
| 20260906090522 | 68 | 336 | 0.0 | 0.0 | 0.00 | 0.55 | 0.01 | 99 | 1010.8 |
| 20260906090026 | 69 | 336 | 0.0 | 0.0 | 0.00 | 0.55 | 0.01 | 99 | 1010.7 |
| 20260906085520 | 69 | 336 | 0.0 | 0.0 | 0.00 | 0.55 | 0.01 | 99 | 1010.7 |
| 20260906085022 | 69 | 336 | 0.0 | 0.0 | 0.00 | 0.55 | 0.01 | 99 | 1010.6 |
| 20260906084520 | 69 | 336 | 0.0 | 0.0 | 0.00 | 0.55 | 0.01 | 99 | 1010.6 |
| 20260906084020 | 69 | 336 | 0.0 | 0.0 | 0.00 | 0.55 | 0.01 | 99 | 1010.6 |
| 20260906083519 | 69 | 336 | 0.0 | 1.0 | 0.00 | 0.55 | 0.01 | 99 | 1010.6 |
| 20260906083020 | 69 | 336 | 0.0 | 2.0 | 0.00 | 0.55 | 0.01 | 99 | 1010.6 |
| 20260906082523 | 69 | 332 | 0.0 | 2.0 | 0.00 | 0.55 | 0.01 | 99 | 1010.5 |
| 20260906082019 | 69 | 317 | 0.0 | 0.0 | 0.00 | 0.55 | 0.01 | 99 | 1010.5 |
| 20260906081518 | 69 | 317 | 0.0 | 0.0 | 0.00 | 0.55 | 0.01 | 99 | 1010.5 |
| 20260906081018 | 69 | 317 | 0.0 | 0.0 | 0.00 | 0.55 | 0.01 | 99 | 1010.5 |
| 20260906080519 | 69 | 317 | 0.0 | 0.0 | 0.00 | 0.55 | 0.01 | 99 | 1010.6 |
| 20260906080017 | 69 | 317 | 0.0 | 0.0 | 0.00 | 0.55 | 0.01 | 99 | 1010.6 |
| 20260906075516 | 69 | 317 | 0.0 | 0.0 | 0.00 | 0.55 | 0.01 | 99 | 1010.6 |
| 20260906075015 | 69 | 317 | 0.0 | 0.0 | 0.00 | 0.55 | 0.01 | 99 | 1010.6 |
| 20260906074516 | 69 | 317 | 0.0 | 0.0 | 0.00 | 0.55 | 0.01 | 99 | 1010.7 |
| 20260906074019 | 69 | 317 | 0.0 | 0.0 | 0.00 | 0.55 | 0.01 | 99 | 1010.7 |
| 20260906073514 | 69 | 317 | 0.0 | 0.0 | 0.00 | 0.55 | 0.01 | 98 | 1010.6 |
| 20260906073021 | 69 | 317 | 0.0 | 0.0 | 0.00 | 0.55 | 0.01 | 99 | 1010.6 |
| 20260906072515 | 70 | 317 | 0.0 | 0.0 | 0.00 | 0.55 | 0.01 | 99 | 1010.7 |
| 20260906072015 | 70 | 317 | 0.0 | 0.0 | 0.00 | 0.55 | 0.01 | 99 | 1010.7 |
| 20260906071513 | 70 | 317 | 0.0 | 0.0 | 0.00 | 0.55 | 0.01 | 99 | 1010.7 |
| 20260906071013 | 69 | 317 | 0.0 | 0.0 | 0.00 | 0.55 | 0.01 | 99 | 1010.8 |
| 20260906070512 | 69 | 317 | 0.0 | 0.0 | 0.00 | 0.55 | 0.01 | 99 | 1010.8 |
| 20260906070012 | 69 | 317 | 0.0 | 0.0 | 0.00 | 0.55 | 0.01 | 99 | 1010.7 |
| 20260906065511 | 70 | 317 | 0.0 | 0.0 | 0.01 | 0.55 | 0.01 | 99 | 1010.7 |
| 20260906065011 | 70 | 317 | 0.0 | 0.0 | 0.01 | 0.55 | 0.01 | 99 | 1010.8 |
| 20260906064510 | 70 | 317 | 0.0 | 0.0 | 0.01 | 0.55 | 0.01 | 99 | 1010.8 |
| 20260906064010 | 70 | 317 | 0.0 | 0.0 | 0.01 | 0.55 | 0.01 | 99 | 1010.8 |
| 20260906063509 | 70 | 317 | 0.0 | 0.0 | 0.01 | 0.55 | 0.01 | 98 | 1010.8 |
| 20260906063009 | 70 | 317 | 0.0 | 0.0 | 0.01 | 0.55 | 0.01 | 99 | 1011.0 |
| 20260906062508 | 70 | 317 | 0.0 | 0.0 | 0.01 | 0.55 | 0.01 | 99 | 1011.1 |
| 20260906062008 | 70 | 317 | 0.0 | 0.0 | 0.01 | 0.55 | 0.01 | 98 | 1011.2 |
| 20260906061508 | 70 | 317 | 0.0 | 0.0 | 0.01 | 0.55 | 0.01 | 98 | 1011.2 |
| 20260906061007 | 70 | 317 | 0.0 | 0.0 | 0.01 | 0.55 | 0.01 | 98 | 1011.1 |
| 20260906060506 | 70 | 317 | 0.0 | 0.0 | 0.01 | 0.55 | 0.01 | 99 | 1011.2 |
| 20260906060009 | 70 | 315 | 0.0 | 0.0 | 0.01 | 0.55 | 0.01 | 98 | 1011.4 |
| 20260906055505 | 70 | 314 | 0.0 | 0.0 | 0.00 | 0.54 | 0.00 | 99 | 1011.3 |
| 20260906055007 | 70 | 314 | 0.0 | 0.0 | 0.00 | 0.54 | 0.00 | 98 | 1011.4 |
| 20260906054504 | 70 | 314 | 0.0 | 0.0 | 0.00 | 0.54 | 0.00 | 98 | 1011.4 |
| 20260906054004 | 70 | 314 | 0.0 | 0.0 | 0.00 | 0.54 | 0.00 | 98 | 1011.6 |
| 20260906053504 | 70 | 314 | 0.0 | 0.0 | 0.00 | 0.54 | 0.00 | 98 | 1011.8 |
| 20260906053003 | 71 | 314 | 0.0 | 0.0 | 0.00 | 0.54 | 0.00 | 98 | 1011.8 |
| 20260906052503 | 71 | 314 | 0.0 | 0.0 | 0.00 | 0.54 | 0.00 | 98 | 1011.7 |
| 20260906052001 | 71 | 314 | 0.0 | 0.0 | 0.00 | 0.54 | 0.00 | 98 | 1011.9 |
| 20260906051600 | 71 | 314 | 0.0 | 0.0 | 0.00 | 0.54 | 0.00 | 98 | 1012.0 |
| 20260906051102 | 71 | 314 | 0.0 | 0.0 | 0.00 | 0.54 | 0.00 | 98 | 1011.9 |
| 20260906050557 | 71 | 314 | 0.0 | 0.0 | 0.00 | 0.54 | 0.00 | 98 | 1011.9 |
| 20260906050120 | 71 | 314 | 0.0 | 0.0 | 0.00 | 0.54 | 0.00 | 99 | 1011.8 |
| 20260906045558 | 71 | 313 | 0.0 | 0.0 | 0.00 | 0.54 | 0.00 | 98 | 1012.0 |
| 20260906045055 | 71 | 314 | 0.0 | 0.0 | 0.00 | 0.54 | 0.00 | 98 | 1011.9 |
| 20260906044555 | 71 | 314 | 0.0 | 0.0 | 0.00 | 0.54 | 0.00 | 98 | 1011.9 |
| 20260906044055 | 70 | 314 | 0.0 | 0.0 | 0.00 | 0.54 | 0.00 | 98 | 1011.9 |
| 20260906043554 | 70 | 314 | 0.0 | 0.0 | 0.00 | 0.54 | 0.00 | 98 | 1011.7 |
| 20260906043057 | 70 | 314 | 0.0 | 0.0 | 0.00 | 0.54 | 0.00 | 98 | 1011.7 |
| 20260906042554 | 71 | 314 | 0.0 | 0.0 | 0.00 | 0.54 | 0.00 | 98 | 1011.7 |
| 20260906042052 | 71 | 314 | 0.0 | 0.0 | 0.00 | 0.54 | 0.00 | 98 | 1011.7 |
| 20260906041552 | 71 | 314 | 0.0 | 0.0 | 0.00 | 0.54 | 0.00 | 98 | 1011.6 |
| 20260906041050 | 71 | 314 | 0.0 | 0.0 | 0.00 | 0.54 | 0.00 | 98 | 1011.6 |
| 20260906040548 | 71 | 313 | 0.0 | 0.0 | 0.00 | 0.54 | 0.00 | 98 | 1011.5 |
| 20260906040047 | 71 | 314 | 0.0 | 0.0 | 0.00 | 0.54 | 0.00 | 98 | 1011.6 |
| 20260906035548 | 71 | 313 | 0.0 | 0.0 | 0.00 | 0.54 | 0.54 | 97 | 1011.6 |
| 20260906035047 | 71 | 314 | 0.0 | 0.0 | 0.00 | 0.54 | 0.54 | 97 | 1011.7 |
| 20260906034546 | 71 | 313 | 0.0 | 0.0 | 0.00 | 0.54 | 0.54 | 97 | 1011.8 |
| 20260906034045 | 71 | 313 | 0.0 | 0.0 | 0.00 | 0.54 | 0.54 | 97 | 1011.9 |
| 20260906033545 | 71 | 313 | 0.0 | 0.0 | 0.00 | 0.54 | 0.54 | 97 | 1012.0 |
| 20260906033055 | 71 | 313 | 0.0 | 0.0 | 0.00 | 0.54 | 0.54 | 97 | 1012.0 |
| 20260906032549 | 72 | 313 | 0.0 | 0.0 | 0.00 | 0.54 | 0.54 | 97 | 1011.9 |
| 20260906032044 | 72 | 313 | 0.0 | 0.0 | 0.00 | 0.54 | 0.54 | 97 | 1011.8 |
| 20260906031546 | 72 | 313 | 0.0 | 0.0 | 0.00 | 0.54 | 0.54 | 97 | 1011.9 |
| 20260906031044 | 72 | 313 | 0.0 | 0.0 | 0.00 | 0.54 | 0.54 | 97 | 1012.0 |
| 20260906030544 | 72 | 313 | 0.0 | 0.0 | 0.00 | 0.54 | 0.54 | 97 | 1012.0 |
| 20260906030044 | 72 | 313 | 0.0 | 0.0 | 0.00 | 0.54 | 0.54 | 96 | 1011.9 |
| 20260906025543 | 72 | 313 | 0.0 | 0.0 | 0.00 | 0.54 | 0.54 | 96 | 1012.0 |
| 20260906025044 | 72 | 313 | 0.0 | 0.0 | 0.00 | 0.54 | 0.54 | 97 | 1012.1 |
| 20260906024544 | 72 | 313 | 0.0 | 0.0 | 0.00 | 0.54 | 0.54 | 97 | 1012.1 |
| 20260906024043 | 72 | 313 | 0.0 | 0.0 | 0.00 | 0.54 | 0.54 | 97 | 1012.0 |
| 20260906023543 | 72 | 313 | 0.0 | 0.0 | 0.00 | 0.54 | 0.54 | 96 | 1011.8 |
| 20260906023042 | 72 | 313 | 0.0 | 0.0 | 0.00 | 0.54 | 0.54 | 96 | 1011.8 |
| 20260906022545 | 72 | 313 | 0.0 | 0.0 | 0.00 | 0.54 | 0.54 | 97 | 1011.7 |
| 20260906022042 | 72 | 313 | 0.0 | 0.0 | 0.00 | 0.54 | 0.54 | 97 | 1011.7 |
| 20260906021549 | 72 | 313 | 0.0 | 0.0 | 0.00 | 0.54 | 0.54 | 96 | 1011.6 |
| 20260906021041 | 72 | 313 | 0.0 | 0.0 | 0.00 | 0.54 | 0.54 | 96 | 1011.4 |
| 20260906020544 | 72 | 313 | 0.0 | 0.0 | 0.00 | 0.54 | 0.54 | 97 | 1011.4 |
| 20260906020049 | 72 | 313 | 0.0 | 0.0 | 0.00 | 0.54 | 0.54 | 96 | 1011.3 |
| 20260906015540 | 72 | 313 | 0.0 | 0.0 | 0.00 | 0.54 | 0.54 | 96 | 1011.1 |
| 20260906015039 | 72 | 313 | 0.0 | 0.0 | 0.00 | 0.54 | 0.54 | 96 | 1011.0 |
| 20260906014550 | 72 | 313 | 0.0 | 0.0 | 0.00 | 0.54 | 0.54 | 96 | 1010.8 |
| 20260906014039 | 72 | 313 | 0.0 | 0.0 | 0.00 | 0.54 | 0.54 | 97 | 1010.8 |
| 20260906013539 | 72 | 313 | 0.0 | 0.0 | 0.00 | 0.54 | 0.54 | 97 | 1010.9 |
| 20260906013040 | 72 | 313 | 0.0 | 0.0 | 0.00 | 0.54 | 0.54 | 96 | 1010.9 |
| 20260906012539 | 72 | 312 | 0.0 | 0.0 | 0.00 | 0.54 | 0.54 | 96 | 1010.8 |
| 20260906012039 | 72 | 312 | 0.0 | 0.0 | 0.00 | 0.54 | 0.54 | 96 | 1010.8 |
| 20260906011539 | 72 | 312 | 0.0 | 0.0 | 0.00 | 0.54 | 0.54 | 96 | 1010.8 |
| 20260906011039 | 72 | 312 | 0.0 | 0.0 | 0.00 | 0.54 | 0.54 | 96 | 1010.7 |
| 20260906010538 | 73 | 311 | 0.0 | 0.0 | 0.00 | 0.54 | 0.54 | 96 | 1010.8 |
| 20260906010041 | 73 | 311 | 0.0 | 0.0 | 0.00 | 0.54 | 0.54 | 96 | 1010.8 |
| 20260906005539 | 73 | 311 | 0.0 | 0.0 | 0.00 | 0.54 | 0.54 | 96 | 1010.8 |
| 20260906005041 | 73 | 307 | 0.0 | 0.0 | 0.00 | 0.54 | 0.54 | 96 | 1010.7 |
| 20260906004541 | 73 | 307 | 0.0 | 0.0 | 0.00 | 0.54 | 0.54 | 96 | 1010.7 |
| 20260906004037 | 73 | 279 | 0.0 | 0.0 | 0.00 | 0.54 | 0.54 | 95 | 1010.6 |
| 20260906003537 | 73 | 246 | 0.0 | 0.0 | 0.00 | 0.54 | 0.54 | 96 | 1010.5 |
| 20260906003037 | 72 | 246 | 0.0 | 0.0 | 0.00 | 0.54 | 0.54 | 96 | 1010.6 |
| 20260906002538 | 72 | 246 | 0.0 | 0.0 | 0.00 | 0.54 | 0.54 | 95 | 1010.6 |
| 20260906002038 | 72 | 246 | 0.0 | 0.0 | 0.00 | 0.54 | 0.54 | 95 | 1010.7 |
| 20260906001536 | 73 | 246 | 0.0 | 0.0 | 0.00 | 0.54 | 0.54 | 94 | 1010.6 |
| 20260906001036 | 73 | 244 | 0.0 | 0.0 | 0.00 | 0.54 | 0.54 | 94 | 1010.8 |
| 20260906000536 | 73 | 244 | 0.0 | 0.0 | 0.00 | 0.54 | 0.54 | 93 | 1010.9 |
| 20260906000041 | 73 | 244 | 0.0 | 0.0 | 0.00 | 0.54 | 0.54 | 93 | 1011.0 |
| 20260905235536 | 73 | 232 | 0.0 | 0.0 | 0.00 | 0.54 | 0.54 | 94 | 1010.8 |
| 20260905235036 | 73 | 232 | 0.0 | 0.0 | 0.00 | 0.54 | 0.54 | 93 | 1010.9 |
| 20260905234535 | 73 | 232 | 0.0 | 0.0 | 0.00 | 0.54 | 0.54 | 93 | 1011.0 |
| 20260905234035 | 73 | 234 | 0.0 | 0.0 | 0.00 | 0.54 | 0.54 | 92 | 1011.1 |
| 20260905233537 | 73 | 232 | 0.0 | 2.0 | 0.00 | 0.54 | 0.54 | 92 | 1011.2 |
| 20260905233040 | 74 | 233 | 0.0 | 3.0 | 0.00 | 0.54 | 0.54 | 92 | 1011.2 |
| 20260905232535 | 74 | 231 | 0.0 | 4.0 | 0.00 | 0.54 | 0.54 | 91 | 1011.2 |
| 20260905232035 | 74 | 232 | 1.0 | 5.0 | 0.00 | 0.54 | 0.54 | 90 | 1011.4 |
| 20260905231541 | 74 | 216 | 1.0 | 5.0 | 0.00 | 0.54 | 0.54 | 90 | 1011.5 |
| 20260905231034 | 74 | 226 | 0.0 | 7.0 | 0.00 | 0.54 | 0.54 | 92 | 1011.4 |
| 20260905230537 | 74 | 196 | 3.0 | 7.0 | 0.00 | 0.54 | 0.54 | 91 | 1011.5 |
| 20260905230039 | 74 | 217 | 1.0 | 6.0 | 0.00 | 0.54 | 0.54 | 91 | 1011.5 |
| 20260905225538 | 75 | 170 | 0.0 | 6.0 | 0.00 | 0.54 | 0.54 | 92 | 1011.6 |
| 20260905225033 | 75 | 209 | 1.0 | 9.0 | 0.00 | 0.54 | 0.54 | 93 | 1011.4 |
| 20260905224534 | 75 | 213 | 0.0 | 10.0 | 0.02 | 0.54 | 0.54 | 94 | 1011.2 |
| 20260905224034 | 75 | 151 | 4.0 | 10.0 | 0.08 | 0.54 | 0.54 | 94 | 1011.2 |
| 20260905223534 | 74 | 155 | 3.0 | 7.0 | 0.16 | 0.54 | 0.54 | 95 | 1011.6 |
| 20260905223035 | 74 | 164 | 0.0 | 4.0 | 0.24 | 0.54 | 0.54 | 96 | 1011.5 |
| 20260905222537 | 74 | 244 | 0.0 | 0.0 | 0.34 | 0.54 | 0.54 | 97 | 1011.1 |
| 20260905222033 | 73 | 244 | 0.0 | 0.0 | 0.47 | 0.54 | 0.54 | 96 | 1011.1 |
| 20260905221536 | 73 | 213 | 0.0 | 5.0 | 0.54 | 0.54 | 0.54 | 96 | 1011.7 |
| 20260905221033 | 72 | 115 | 0.0 | 5.0 | 0.54 | 0.54 | 0.54 | 96 | 1011.4 |
| 20260905220531 | 72 | 290 | 0.0 | 4.0 | 0.54 | 0.54 | 0.54 | 96 | 1011.0 |
| 20260905220032 | 72 | 290 | 2.0 | 4.0 | 0.54 | 0.54 | 0.54 | 96 | 1011.1 |
| 20260905215531 | 72 | 71 | 0.0 | 4.0 | 0.54 | 0.54 | 0.54 | 94 | 1011.0 |
| 20260905215030 | 72 | 321 | 0.0 | 0.0 | 0.54 | 0.54 | 0.54 | 93 | 1010.1 |
| 20260905214534 | 73 | 320 | 0.0 | 4.0 | 0.51 | 0.51 | 0.51 | 93 | 1009.7 |
| 20260905214029 | 73 | 321 | 0.0 | 8.0 | 0.45 | 0.45 | 0.45 | 92 | 1009.8 |
| 20260905213528 | 74 | 254 | 2.0 | 8.0 | 0.37 | 0.37 | 0.37 | 90 | 1010.1 |
| 20260905213026 | 75 | 302 | 1.0 | 6.0 | 0.28 | 0.28 | 0.28 | 88 | 1010.8 |
| 20260905212525 | 78 | 46 | 3.0 | 19.0 | 0.19 | 0.19 | 0.19 | 83 | 1010.3 |
| 20260905212024 | 88 | 111 | 12.0 | 19.0 | 0.05 | 0.05 | 0.05 | 65 | 1010.0 |
| 20260905211531 | 96 | 31 | 2.0 | 5.0 | 0.00 | 0.00 | 0.00 | 58 | 1009.8 |
| 20260905211024 | 97 | 292 | 0.0 | 0.0 | 0.00 | 0.00 | 0.00 | 56 | 1009.4 |
| 20260905210523 | 98 | 289 | 0.0 | 0.0 | 0.00 | 0.00 | 0.00 | 55 | 1009.1 |
| 20260905210023 | 99 | 288 | 0.0 | 0.0 | 0.00 | 0.00 | 0.00 | 54 | 1009.2 |
| 20260905205524 | 100 | 252 | 0.0 | 3.0 | 0.00 | 0.00 | 0.00 | 52 | 1009.3 |
| 20260905205022 | 101 | 211 | 0.0 | 4.0 | 0.00 | 0.00 | 0.00 | 51 | 1009.1 |
| 20260905204521 | 101 | 273 | 1.0 | 4.0 | 0.00 | 0.00 | 0.00 | 51 | 1009.3 |
| 20260905204020 | 101 | 267 | 1.0 | 6.0 | 0.00 | 0.00 | 0.00 | 52 | 1009.3 |
| 20260905203520 | 101 | 192 | 2.0 | 6.0 | 0.00 | 0.00 | 0.00 | 51 | 1009.2 |
| 20260905203018 | 100 | 238 | 1.0 | 6.0 | 0.00 | 0.00 | 0.00 | 52 | 1009.1 |
| 20260905202515 | 101 | 249 | 1.0 | 8.0 | 0.00 | 0.00 | 0.00 | 51 | 1009.1 |
| 20260905202014 | 101 | 233 | 1.0 | 8.0 | 0.00 | 0.00 | 0.00 | 52 | 1009.0 |
| 20260905201513 | 100 | 252 | 1.0 | 8.0 | 0.00 | 0.00 | 0.00 | 53 | 1009.1 |
| 20260905201012 | 99 | 199 | 4.0 | 8.0 | 0.00 | 0.00 | 0.00 | 53 | 1009.1 |
| 20260905200516 | 99 | 225 | 2.0 | 7.0 | 0.00 | 0.00 | 0.00 | 55 | 1009.1 |
| 20260905200014 | 99 | 281 | 1.0 | 5.0 | 0.00 | 0.00 | 0.00 | 55 | 1009.2 |
| 20260905195511 | 99 | 236 | 2.0 | 6.0 | 0.00 | 0.00 | 0.00 | 54 | 1009.4 |
| 20260905195010 | 99 | 231 | 2.0 | 6.0 | 0.00 | 0.00 | 0.00 | 56 | 1009.3 |
| 20260905194510 | 98 | 130 | 1.0 | 8.0 | 0.00 | 0.00 | 0.00 | 55 | 1009.4 |
| 20260905194008 | 98 | 163 | 4.0 | 10.0 | 0.00 | 0.00 | 0.00 | 55 | 1009.4 |
| 20260905193507 | 100 | 189 | 6.0 | 10.0 | 0.00 | 0.00 | 0.00 | 53 | 1009.6 |
| 20260905193008 | 100 | 172 | 2.0 | 7.0 | 0.00 | 0.00 | 0.00 | 53 | 1009.6 |
| 20260905192506 | 100 | 194 | 2.0 | 7.0 | 0.00 | 0.00 | 0.00 | 54 | 1009.5 |
| 20260905192005 | 99 | 211 | 0.0 | 7.0 | 0.00 | 0.00 | 0.00 | 56 | 1009.7 |
| 20260905191504 | 99 | 120 | 4.0 | 7.0 | 0.00 | 0.00 | 0.00 | 55 | 1009.8 |
| 20260905191006 | 99 | 242 | 2.0 | 9.0 | 0.00 | 0.00 | 0.00 | 56 | 1009.9 |
| 20260905190505 | 98 | 197 | 2.0 | 9.0 | 0.00 | 0.00 | 0.00 | 56 | 1009.9 |
| 20260905190002 | 98 | 219 | 2.0 | 8.0 | 0.00 | 0.00 | 0.00 | 57 | 1010.0 |
| 20260905185600 | 98 | 155 | 2.0 | 8.0 | 0.00 | 0.00 | 0.00 | 56 | 1010.1 |
| 20260905185059 | 98 | 217 | 4.0 | 8.0 | 0.00 | 0.00 | 0.00 | 56 | 1010.4 |
| 20260905184602 | 98 | 265 | 3.0 | 8.0 | 0.00 | 0.00 | 0.00 | 57 | 1010.5 |
| 20260905184057 | 98 | 212 | 3.0 | 8.0 | 0.00 | 0.00 | 0.00 | 57 | 1010.6 |
| 20260905183556 | 97 | 229 | 1.0 | 8.0 | 0.00 | 0.00 | 0.00 | 58 | 1010.8 |
| 20260905183058 | 97 | 178 | 4.0 | 8.0 | 0.00 | 0.00 | 0.00 | 57 | 1010.9 |
| 20260905182554 | 98 | 115 | 0.0 | 6.0 | 0.00 | 0.00 | 0.00 | 55 | 1011.0 |
| 20260905182054 | 98 | 257 | 2.0 | 7.0 | 0.00 | 0.00 | 0.00 | 56 | 1011.1 |
| 20260905181554 | 99 | 290 | 1.0 | 7.0 | 0.00 | 0.00 | 0.00 | 55 | 1011.2 |
| 20260905181055 | 98 | 231 | 0.0 | 8.0 | 0.00 | 0.00 | 0.00 | 58 | 1011.3 |
| 20260905180551 | 98 | 182 | 2.0 | 6.0 | 0.00 | 0.00 | 0.00 | 57 | 1011.3 |
| 20260905180050 | 97 | 350 | 1.0 | 4.0 | 0.00 | 0.00 | 0.00 | 58 | 1011.4 |
| 20260905175552 | 97 | 240 | 1.0 | 7.0 | 0.00 | 0.00 | 0.00 | 58 | 1011.4 |
| 20260905175049 | 97 | 186 | 4.0 | 8.0 | 0.00 | 0.00 | 0.00 | 57 | 1011.5 |
| 20260905174549 | 97 | 229 | 2.0 | 8.0 | 0.00 | 0.00 | 0.00 | 57 | 1011.5 |
| 20260905174048 | 98 | 327 | 2.0 | 4.0 | 0.00 | 0.00 | 0.00 | 58 | 1011.6 |
| 20260905173546 | 97 | 330 | 0.0 | 4.0 | 0.00 | 0.00 | 0.00 | 57 | 1011.6 |
| 20260905173045 | 97 | 323 | 0.0 | 7.0 | 0.00 | 0.00 | 0.00 | 57 | 1011.8 |
| 20260905172546 | 97 | 269 | 2.0 | 7.0 | 0.00 | 0.00 | 0.00 | 59 | 1011.8 |
| 20260905172044 | 96 | 196 | 2.0 | 5.0 | 0.00 | 0.00 | 0.00 | 58 | 1011.9 |
| 20260905171545 | 96 | 343 | 1.0 | 9.0 | 0.00 | 0.00 | 0.00 | 56 | 1012.0 |
| 20260905171043 | 97 | 205 | 3.0 | 9.0 | 0.00 | 0.00 | 0.00 | 57 | 1012.1 |
| 20260905170540 | 96 | 247 | 2.0 | 8.0 | 0.00 | 0.00 | 0.00 | 58 | 1012.3 |
| 20260905170040 | 96 | 194 | 3.0 | 8.0 | 0.00 | 0.00 | 0.00 | 59 | 1012.2 |
| 20260905165539 | 96 | 339 | 0.0 | 7.0 | 0.00 | 0.00 | 0.00 | 61 | 1012.2 |
| 20260905165036 | 95 | 170 | 2.0 | 6.0 | 0.00 | 0.00 | 0.00 | 62 | 1012.4 |
| 20260905164535 | 95 | 307 | 0.0 | 6.0 | 0.00 | 0.00 | 0.00 | 63 | 1012.4 |
| 20260905164034 | 94 | 10 | 0.0 | 6.0 | 0.00 | 0.00 | 0.00 | 61 | 1012.6 |
| 20260905163532 | 94 | 271 | 1.0 | 6.0 | 0.00 | 0.00 | 0.00 | 63 | 1012.6 |
| 20260905163031 | 94 | 223 | 0.0 | 7.0 | 0.00 | 0.00 | 0.00 | 64 | 1012.7 |
| 20260905162529 | 94 | 215 | 2.0 | 7.0 | 0.00 | 0.00 | 0.00 | 64 | 1012.8 |
| 20260905162029 | 94 | 212 | 2.0 | 7.0 | 0.00 | 0.00 | 0.00 | 63 | 1012.9 |
| 20260905161527 | 93 | 317 | 0.0 | 8.0 | 0.00 | 0.00 | 0.00 | 65 | 1012.9 |
| 20260905161024 | 93 | 257 | 3.0 | 9.0 | 0.00 | 0.00 | 0.00 | 66 | 1012.8 |
| 20260905160523 | 93 | 182 | 1.0 | 7.0 | 0.00 | 0.00 | 0.00 | 68 | 1012.9 |
| 20260905160027 | 92 | 215 | 2.0 | 7.0 | 0.00 | 0.00 | 0.00 | 67 | 1013.0 |
| 20260905155525 | 93 | 213 | 4.0 | 7.0 | 0.00 | 0.00 | 0.00 | 67 | 1013.0 |
| 20260905155022 | 92 | 224 | 2.0 | 8.0 | 0.00 | 0.00 | 0.00 | 68 | 1013.1 |
| 20260905154516 | 92 | 277 | 2.0 | 8.0 | 0.00 | 0.00 | 0.00 | 69 | 1013.2 |
| 20260905154017 | 92 | 250 | 0.0 | 5.0 | 0.00 | 0.00 | 0.00 | 69 | 1013.2 |
| 20260905153515 | 92 | 297 | 1.0 | 8.0 | 0.00 | 0.00 | 0.00 | 70 | 1013.3 |
| 20260905153013 | 91 | 216 | 2.0 | 8.0 | 0.00 | 0.00 | 0.00 | 69 | 1013.2 |
| 20260905152512 | 91 | 262 | 2.0 | 6.0 | 0.00 | 0.00 | 0.00 | 70 | 1013.4 |
| 20260905152011 | 91 | 346 | 1.0 | 8.0 | 0.00 | 0.00 | 0.00 | 71 | 1013.4 |
| 20260905151510 | 91 | 245 | 2.0 | 7.0 | 0.00 | 0.00 | 0.00 | 71 | 1013.5 |
| 20260905151010 | 91 | 286 | 0.0 | 4.0 | 0.00 | 0.00 | 0.00 | 72 | 1013.4 |
| 20260905150507 | 90 | 269 | 0.0 | 6.0 | 0.00 | 0.00 | 0.00 | 74 | 1013.5 |
| 20260905150007 | 89 | 213 | 0.0 | 4.0 | 0.00 | 0.00 | 0.00 | 74 | 1013.6 |
| 20260905145505 | 89 | 142 | 0.0 | 4.0 | 0.00 | 0.00 | 0.00 | 75 | 1013.6 |
| 20260905145007 | 89 | 252 | 1.0 | 4.0 | 0.00 | 0.00 | 0.00 | 76 | 1013.7 |
| 20260905144504 | 89 | 205 | 0.0 | 0.0 | 0.00 | 0.00 | 0.00 | 76 | 1013.7 |
| 20260905144002 | 88 | 221 | 0.0 | 3.0 | 0.00 | 0.00 | 0.00 | 77 | 1013.7 |
| 20260905143501 | 87 | 227 | 0.0 | 4.0 | 0.00 | 0.00 | 0.00 | 78 | 1013.7 |
| 20260905143002 | 87 | 252 | 2.0 | 5.0 | 0.00 | 0.00 | 0.00 | 78 | 1013.8 |
| 20260905142600 | 87 | 215 | 2.0 | 5.0 | 0.00 | 0.00 | 0.00 | 79 | 1013.8 |
| 20260905142059 | 87 | 289 | 0.0 | 7.0 | 0.00 | 0.00 | 0.00 | 79 | 1013.9 |
| 20260905141558 | 86 | 259 | 1.0 | 7.0 | 0.00 | 0.00 | 0.00 | 79 | 1013.9 |
| 20260905141056 | 86 | 206 | 2.0 | 6.0 | 0.00 | 0.00 | 0.00 | 80 | 1014.0 |
| 20260905140555 | 85 | 273 | 0.0 | 6.0 | 0.00 | 0.00 | 0.00 | 81 | 1014.0 |
| 20260905140054 | 85 | 217 | 2.0 | 6.0 | 0.00 | 0.00 | 0.00 | 81 | 1013.9 |
| 20260905135556 | 85 | 247 | 0.0 | 9.0 | 0.00 | 0.00 | 0.00 | 81 | 1014.0 |
| 20260905135053 | 85 | 213 | 4.0 | 9.0 | 0.00 | 0.00 | 0.00 | 81 | 1014.0 |
| 20260905134552 | 84 | 207 | 2.0 | 6.0 | 0.00 | 0.00 | 0.00 | 82 | 1014.0 |
| 20260905134051 | 84 | 251 | 0.0 | 5.0 | 0.00 | 0.00 | 0.00 | 82 | 1014.1 |
| 20260905133549 | 84 | 258 | 2.0 | 7.0 | 0.00 | 0.00 | 0.00 | 83 | 1014.0 |
| 20260905133048 | 83 | 241 | 3.0 | 9.0 | 0.00 | 0.00 | 0.00 | 84 | 1014.0 |
| 20260905132547 | 83 | 233 | 2.0 | 9.0 | 0.00 | 0.00 | 0.00 | 85 | 1014.0 |
| 20260905132046 | 82 | 251 | 0.0 | 4.0 | 0.00 | 0.00 | 0.00 | 86 | 1014.2 |
| 20260905131545 | 82 | 240 | 1.0 | 4.0 | 0.00 | 0.00 | 0.00 | 87 | 1014.1 |
| 20260905131046 | 81 | 277 | 1.0 | 4.0 | 0.00 | 0.00 | 0.00 | 88 | 1014.2 |
| 20260905130544 | 81 | 259 | 0.0 | 9.0 | 0.00 | 0.00 | 0.00 | 90 | 1014.3 |
| 20260905130043 | 80 | 273 | 1.0 | 9.0 | 0.00 | 0.00 | 0.00 | 90 | 1014.2 |
| 20260905125542 | 80 | 264 | 1.0 | 9.0 | 0.00 | 0.00 | 0.00 | 91 | 1014.2 |
| 20260905125145 | 80 | 238 | 3.0 | 9.0 | 0.00 | 0.00 | 0.00 | 91 | 1014.2 |
| 20260905124541 | 79 | 240 | 1.0 | 10.0 | 0.00 | 0.00 | 0.00 | 93 | 1014.2 |
| 20260905124040 | 78 | 235 | 2.0 | 6.0 | 0.00 | 0.00 | 0.00 | 93 | 1014.2 |
| 20260905123541 | 78 | 254 | 2.0 | 6.0 | 0.00 | 0.00 | 0.00 | 94 | 1014.2 |
| 20260905123040 | 78 | 243 | 0.0 | 7.0 | 0.00 | 0.00 | 0.00 | 95 | 1014.2 |
| 20260905122541 | 77 | 232 | 1.0 | 7.0 | 0.00 | 0.00 | 0.00 | 95 | 1014.1 |
| 20260905122039 | 77 | 238 | 2.0 | 7.0 | 0.00 | 0.00 | 0.00 | 95 | 1014.1 |
| 20260905121540 | 77 | 232 | 2.0 | 7.0 | 0.00 | 0.00 | 0.00 | 96 | 1014.0 |
| 20260905121042 | 77 | 258 | 0.0 | 7.0 | 0.00 | 0.00 | 0.00 | 96 | 1014.0 |
| 20260905120539 | 76 | 272 | 1.0 | 7.0 | 0.00 | 0.00 | 0.00 | 96 | 1014.0 |
| 20260905120038 | 76 | 259 | 1.0 | 5.0 | 0.00 | 0.00 | 0.00 | 97 | 1014.0 |
| 20260905115538 | 76 | 250 | 2.0 | 5.0 | 0.00 | 0.00 | 0.00 | 97 | 1013.9 |
| 20260905115038 | 76 | 255 | 0.0 | 3.0 | 0.00 | 0.00 | 0.00 | 97 | 1013.9 |
| 20260905114538 | 76 | 224 | 0.0 | 1.0 | 0.00 | 0.00 | 0.00 | 97 | 1013.9 |
| 20260905114039 | 76 | 224 | 0.0 | 0.0 | 0.00 | 0.00 | 0.00 | 97 | 1013.8 |
| 20260905113540 | 76 | 224 | 0.0 | 2.0 | 0.00 | 0.00 | 0.00 | 97 | 1013.8 |
| 20260905113038 | 76 | 222 | 0.0 | 3.0 | 0.00 | 0.00 | 0.00 | 97 | 1013.7 |
| 20260905112538 | 75 | 237 | 0.0 | 4.0 | 0.00 | 0.00 | 0.00 | 97 | 1013.6 |
| 20260905112040 | 75 | 241 | 0.0 | 0.0 | 0.00 | 0.00 | 0.00 | 97 | 1013.6 |
| 20260905111537 | 75 | 240 | 0.0 | 0.0 | 0.00 | 0.00 | 0.00 | 97 | 1013.6 |
| 20260905111037 | 76 | 239 | 0.0 | 0.0 | 0.00 | 0.00 | 0.00 | 97 | 1013.5 |
| 20260905110538 | 76 | 240 | 0.0 | 0.0 | 0.00 | 0.00 | 0.00 | 97 | 1013.6 |
| 20260905110037 | 76 | 244 | 0.0 | 0.0 | 0.00 | 0.00 | 0.00 | 97 | 1013.6 |
| 20260905105538 | 76 | 244 | 0.0 | 0.0 | 0.00 | 0.00 | 0.00 | 97 | 1013.3 |
| 20260905105037 | 76 | 244 | 0.0 | 0.0 | 0.00 | 0.00 | 0.00 | 96 | 1013.3 |
| 20260905104536 | 76 | 244 | 0.0 | 0.0 | 0.00 | 0.00 | 0.00 | 96 | 1013.2 |
| 20260905104035 | 76 | 244 | 0.0 | 0.0 | 0.00 | 0.00 | 0.00 | 96 | 1013.3 |
| 20260905103535 | 76 | 244 | 0.0 | 0.0 | 0.00 | 0.00 | 0.00 | 96 | 1013.4 |
| 20260905103043 | 76 | 261 | 0.0 | 0.0 | 0.00 | 0.00 | 0.00 | 96 | 1013.3 |
| 20260905102535 | 76 | 257 | 0.0 | 0.0 | 0.00 | 0.00 | 0.00 | 96 | 1013.3 |
| 20260905102034 | 76 | 257 | 0.0 | 0.0 | 0.00 | 0.00 | 0.00 | 96 | 1013.2 |
| 20260905101534 | 76 | 257 | 0.0 | 0.0 | 0.00 | 0.00 | 0.00 | 96 | 1013.2 |
| 20260905101034 | 76 | 257 | 0.0 | 0.0 | 0.00 | 0.00 | 0.00 | 96 | 1013.2 |
| 20260905100533 | 76 | 257 | 0.0 | 0.0 | 0.00 | 0.00 | 0.00 | 96 | 1013.1 |
| 20260905100038 | 76 | 257 | 0.0 | 0.0 | 0.00 | 0.00 | 0.00 | 96 | 1013.1 |
| 20260905095533 | 76 | 266 | 0.0 | 0.0 | 0.00 | 0.00 | 0.00 | 96 | 1013.0 |
| 20260905095033 | 76 | 267 | 0.0 | 0.0 | 0.00 | 0.00 | 0.00 | 96 | 1013.1 |
| 20260905094532 | 76 | 284 | 0.0 | 0.0 | 0.00 | 0.00 | 0.00 | 96 | 1013.1 |
| 20260905094032 | 76 | 285 | 0.0 | 0.0 | 0.00 | 0.00 | 0.00 | 96 | 1013.0 |
| 20260905093532 | 76 | 284 | 0.0 | 0.0 | 0.00 | 0.00 | 0.00 | 96 | 1013.1 |